Time,TemperatureF,DewpointF,PressureIn,WindDirection,WindDirectionDegrees,WindSpeedMPH,WindSpeedGustMPH,Humidity,HourlyPrecipIn,Conditions,Clouds,dailyrainin,SolarRadiationWatts/m^2,SoftwareType,DateUTC
2013-03-29 00:12:00,70.0,37.0,-100.00,WSW,252,10.0,18.0,30,0.00,,,0.00,448.000000,,2013-03-29 00:12:00,
2013-03-29 00:22:00,70.0,37.0,-100.00,WSW,252,10.0,18.0,30,0.00,,,0.00,448.000000,,2013-03-29 00:22:00,
2013-03-29 00:32:00,70.0,37.0,-100.00,WSW,252,10.0,18.0,30,0.00,,,0.00,448.000000,,2013-03-29 00:32:00,
2013-03-29 00:42:00,70.0,37.0,-100.00,WSW,252,10.0,18.0,30,0.00,,,0.00,448.000000,,2013-03-29 00:42:00,
2013-03-29 00:50:00,69.0,42.0,-100.00,West,260,10.0,18.0,37,0.00,,,-99.99,289.000000,,2013-03-29 00:50:00,
2013-03-29 01:12:00,69.0,42.0,-100.00,West,260,10.0,18.0,37,0.00,,,-99.99,289.000000,,2013-03-29 01:12:00,
2013-03-29 01:22:00,69.0,42.0,-100.00,West,260,10.0,18.0,37,0.00,,,-99.99,289.000000,,2013-03-29 01:22:00,
2013-03-29 01:32:00,69.0,42.0,-100.00,West,260,10.0,18.0,37,0.00,,,-99.99,289.000000,,2013-03-29 01:32:00,
2013-03-29 01:42:00,69.0,42.0,-100.00,West,260,10.0,18.0,37,0.00,,,-99.99,289.000000,,2013-03-29 01:42:00,
2013-03-29 01:50:00,64.0,40.0,-100.00,WSW,247,8.0,16.0,41,0.00,,,-99.99,103.000000,,2013-03-29 01:50:00,
2013-03-29 02:12:00,64.0,40.0,-100.00,WSW,247,8.0,16.0,41,0.00,,,-99.99,103.000000,,2013-03-29 02:12:00,
2013-03-29 02:22:00,64.0,40.0,-100.00,WSW,247,8.0,16.0,41,0.00,,,-99.99,103.000000,,2013-03-29 02:22:00,
2013-03-29 02:32:00,64.0,40.0,-100.00,WSW,247,8.0,16.0,41,0.00,,,-99.99,103.000000,,2013-03-29 02:32:00,
2013-03-29 02:42:00,64.0,40.0,-100.00,WSW,247,8.0,16.0,41,0.00,,,-99.99,103.000000,,2013-03-29 02:42:00,
2013-03-29 02:50:00,59.0,40.0,-100.00,WSW,255,8.0,12.0,50,0.00,,,-99.99,4.000000,,2013-03-29 02:50:00,
2013-03-29 03:21:00,59.0,40.0,-100.00,WSW,255,8.0,12.0,50,0.00,,,-99.99,4.000000,,2013-03-29 03:21:00,
2013-03-29 03:32:00,59.0,40.0,-100.00,WSW,255,8.0,12.0,50,0.00,,,-99.99,4.000000,,2013-03-29 03:32:00,
2013-03-29 03:42:00,59.0,40.0,-100.00,WSW,255,8.0,12.0,50,0.00,,,-99.99,4.000000,,2013-03-29 03:42:00,
2013-03-29 03:50:00,54.0,40.0,-100.00,SW,228,4.0,12.0,59,0.00,,,-99.99,0.000000,,2013-03-29 03:50:00,
2013-03-29 04:22:00,54.0,40.0,-100.00,SW,228,4.0,12.0,59,0.00,,,-99.99,0.000000,,2013-03-29 04:22:00,
2013-03-29 04:33:00,54.0,40.0,-100.00,SW,228,4.0,12.0,59,0.00,,,-99.99,0.000000,,2013-03-29 04:33:00,
2013-03-29 04:42:00,54.0,40.0,-100.00,SW,228,4.0,12.0,59,0.00,,,-99.99,0.000000,,2013-03-29 04:42:00,
2013-03-29 04:50:00,50.0,40.0,-100.00,WSW,252,1.0,6.0,68,0.00,,,-99.99,0.000000,,2013-03-29 04:50:00,
2013-03-29 05:12:00,50.0,40.0,-100.00,WSW,252,1.0,6.0,68,0.00,,,-99.99,0.000000,,2013-03-29 05:12:00,
2013-03-29 05:22:00,50.0,40.0,-100.00,WSW,252,1.0,6.0,68,0.00,,,-99.99,0.000000,,2013-03-29 05:22:00,
2013-03-29 05:32:00,50.0,40.0,-100.00,WSW,252,1.0,6.0,68,0.00,,,-99.99,0.000000,,2013-03-29 05:32:00,
2013-03-29 05:43:00,50.0,40.0,-100.00,WSW,252,1.0,6.0,68,0.00,,,-99.99,0.000000,,2013-03-29 05:43:00,
2013-03-29 05:50:00,49.0,40.0,-100.00,WSW,247,2.0,6.0,72,0.00,,,-99.99,0.000000,,2013-03-29 05:50:00,
2013-03-29 06:22:00,49.0,40.0,-100.00,WSW,247,2.0,6.0,72,0.00,,,-99.99,0.000000,,2013-03-29 06:22:00,
2013-03-29 06:32:00,49.0,40.0,-100.00,WSW,247,2.0,6.0,72,0.00,,,-99.99,0.000000,,2013-03-29 06:32:00,
2013-03-29 06:42:00,49.0,40.0,-100.00,WSW,247,2.0,6.0,72,0.00,,,-99.99,0.000000,,2013-03-29 06:42:00,
2013-03-29 06:50:00,45.0,40.0,-100.00,WSW,251,3.0,5.0,82,0.00,,,-99.99,0.000000,,2013-03-29 06:50:00,
2013-03-29 07:12:00,45.0,40.0,-100.00,WSW,251,3.0,5.0,82,0.00,,,-99.99,0.000000,,2013-03-29 07:12:00,
2013-03-29 07:22:00,45.0,40.0,-100.00,WSW,251,3.0,5.0,82,0.00,,,-99.99,0.000000,,2013-03-29 07:22:00,
2013-03-29 07:32:00,45.0,40.0,-100.00,WSW,251,3.0,5.0,82,0.00,,,-99.99,0.000000,,2013-03-29 07:32:00,
2013-03-29 07:42:00,45.0,40.0,-100.00,WSW,251,3.0,5.0,82,0.00,,,-99.99,0.000000,,2013-03-29 07:42:00,
2013-03-29 07:50:00,44.0,40.0,-100.00,WSW,257,5.0,7.0,86,0.00,,,-99.99,0.000000,,2013-03-29 07:50:00,
2013-03-29 08:12:00,44.0,40.0,-100.00,WSW,257,5.0,7.0,86,0.00,,,-99.99,0.000000,,2013-03-29 08:12:00,
2013-03-29 08:22:00,44.0,40.0,-100.00,WSW,257,5.0,7.0,86,0.00,,,-99.99,0.000000,,2013-03-29 08:22:00,
2013-03-29 08:32:00,44.0,40.0,-100.00,WSW,257,5.0,7.0,86,0.00,,,-99.99,0.000000,,2013-03-29 08:32:00,
2013-03-29 08:42:00,44.0,40.0,-100.00,WSW,257,5.0,7.0,86,0.00,,,-99.99,0.000000,,2013-03-29 08:42:00,
2013-03-29 08:50:00,42.0,40.0,-100.00,SW,233,2.0,5.0,91,0.00,,,-99.99,0.000000,,2013-03-29 08:50:00,
2013-03-29 09:12:00,42.0,40.0,-100.00,SW,233,2.0,5.0,91,0.00,,,-99.99,0.000000,,2013-03-29 09:12:00,
2013-03-29 09:22:00,42.0,40.0,-100.00,SW,233,2.0,5.0,91,0.00,,,-99.99,0.000000,,2013-03-29 09:22:00,
2013-03-29 09:32:00,42.0,40.0,-100.00,SW,233,2.0,5.0,91,0.00,,,-99.99,0.000000,,2013-03-29 09:32:00,
2013-03-29 09:42:00,42.0,40.0,-100.00,SW,233,2.0,5.0,91,0.00,,,-99.99,0.000000,,2013-03-29 09:42:00,
2013-03-29 09:50:00,40.0,36.0,-100.00,West,269,3.0,5.0,85,0.00,,,-99.99,0.000000,,2013-03-29 09:50:00,
2013-03-29 10:22:00,40.0,36.0,-100.00,West,269,3.0,5.0,85,0.00,,,-99.99,0.000000,,2013-03-29 10:22:00,
2013-03-29 10:33:00,40.0,36.0,-100.00,West,269,3.0,5.0,85,0.00,,,-99.99,0.000000,,2013-03-29 10:33:00,
2013-03-29 10:42:00,40.0,36.0,-100.00,West,269,3.0,5.0,85,0.00,,,-99.99,0.000000,,2013-03-29 10:42:00,
2013-03-29 10:50:00,40.0,36.0,-100.00,WSW,254,3.0,7.0,85,0.00,,,-99.99,0.000000,,2013-03-29 10:50:00,
2013-03-29 11:12:00,40.0,36.0,-100.00,WSW,254,3.0,7.0,85,0.00,,,-99.99,0.000000,,2013-03-29 11:12:00,
2013-03-29 11:23:00,40.0,36.0,-100.00,WSW,254,3.0,7.0,85,0.00,,,-99.99,0.000000,,2013-03-29 11:23:00,
2013-03-29 11:32:00,40.0,36.0,-100.00,WSW,254,3.0,7.0,85,0.00,,,-99.99,0.000000,,2013-03-29 11:32:00,
2013-03-29 11:42:00,40.0,36.0,-100.00,WSW,254,3.0,7.0,85,0.00,,,-99.99,0.000000,,2013-03-29 11:42:00,
2013-03-29 11:50:00,40.0,35.0,-100.00,West,259,2.0,6.0,82,0.00,,,-99.99,0.000000,,2013-03-29 11:50:00,
2013-03-29 12:22:00,40.0,35.0,-100.00,West,259,2.0,6.0,82,0.00,,,-99.99,0.000000,,2013-03-29 12:22:00,
2013-03-29 12:32:00,40.0,35.0,-100.00,West,259,2.0,6.0,82,0.00,,,-99.99,0.000000,,2013-03-29 12:32:00,
2013-03-29 12:42:00,40.0,35.0,-100.00,West,259,2.0,6.0,82,0.00,,,-99.99,0.000000,,2013-03-29 12:42:00,
2013-03-29 12:50:00,40.0,34.0,-100.00,WSW,246,3.0,4.0,79,0.00,,,-99.99,0.000000,,2013-03-29 12:50:00,
2013-03-29 13:22:00,40.0,34.0,-100.00,WSW,246,3.0,4.0,79,0.00,,,-99.99,0.000000,,2013-03-29 13:22:00,
2013-03-29 13:32:00,40.0,34.0,-100.00,WSW,246,3.0,4.0,79,0.00,,,-99.99,0.000000,,2013-03-29 13:32:00,
2013-03-29 13:42:00,40.0,34.0,-100.00,WSW,246,3.0,4.0,79,0.00,,,-99.99,0.000000,,2013-03-29 13:42:00,
2013-03-29 13:50:00,40.0,32.0,-100.00,WSW,256,4.0,6.0,74,0.00,,,-99.99,3.000000,,2013-03-29 13:50:00,
2013-03-29 14:22:00,40.0,32.0,-100.00,WSW,256,4.0,6.0,74,0.00,,,-99.99,3.000000,,2013-03-29 14:22:00,
2013-03-29 14:32:00,40.0,32.0,-100.00,WSW,256,4.0,6.0,74,0.00,,,-99.99,3.000000,,2013-03-29 14:32:00,
2013-03-29 14:42:00,40.0,32.0,-100.00,WSW,256,4.0,6.0,74,0.00,,,-99.99,3.000000,,2013-03-29 14:42:00,
2013-03-29 14:50:00,51.0,38.0,-100.00,SSW,197,0.0,5.0,61,0.00,,,-99.99,114.000000,,2013-03-29 14:50:00,
2013-03-29 15:22:00,51.0,38.0,-100.00,SSW,197,0.0,5.0,61,0.00,,,-99.99,114.000000,,2013-03-29 15:22:00,
2013-03-29 15:33:00,51.0,38.0,-100.00,SSW,197,0.0,5.0,61,0.00,,,-99.99,114.000000,,2013-03-29 15:33:00,
2013-03-29 15:42:00,51.0,38.0,-100.00,SSW,197,0.0,5.0,61,0.00,,,-99.99,114.000000,,2013-03-29 15:42:00,
2013-03-29 15:50:00,63.0,40.0,-100.00,NNE,32,2.0,4.0,42,0.00,,,-99.99,338.000000,,2013-03-29 15:50:00,
2013-03-29 16:12:00,63.0,40.0,-100.00,NNE,32,2.0,4.0,42,0.00,,,-99.99,338.000000,,2013-03-29 16:12:00,
2013-03-29 16:23:00,63.0,40.0,-100.00,NNE,32,2.0,4.0,42,0.00,,,-99.99,338.000000,,2013-03-29 16:23:00,
2013-03-29 16:32:00,63.0,40.0,-100.00,NNE,32,2.0,4.0,42,0.00,,,-99.99,338.000000,,2013-03-29 16:32:00,
2013-03-29 16:42:00,63.0,40.0,-100.00,NNE,32,2.0,4.0,42,0.00,,,-99.99,338.000000,,2013-03-29 16:42:00,
2013-03-29 16:50:00,70.0,34.0,-100.00,ESE,118,5.0,9.0,26,0.00,,,-99.99,558.000000,,2013-03-29 16:50:00,
2013-03-29 17:22:00,70.0,34.0,-100.00,ESE,118,5.0,9.0,26,0.00,,,-99.99,558.000000,,2013-03-29 17:22:00,
2013-03-29 17:33:00,70.0,34.0,-100.00,ESE,118,5.0,9.0,26,0.00,,,-99.99,558.000000,,2013-03-29 17:33:00,
2013-03-29 17:42:00,70.0,34.0,-100.00,ESE,118,5.0,9.0,26,0.00,,,-99.99,558.000000,,2013-03-29 17:42:00,
2013-03-29 17:50:00,72.0,35.0,-100.00,NE,53,7.0,13.0,26,0.00,,,0.00,740.000000,,2013-03-29 17:50:00,
2013-03-29 18:12:00,72.0,35.0,-100.00,NE,53,7.0,13.0,26,0.00,,,0.00,740.000000,,2013-03-29 18:12:00,
2013-03-29 18:22:00,72.0,35.0,-100.00,NE,53,7.0,13.0,26,0.00,,,0.00,740.000000,,2013-03-29 18:22:00,
2013-03-29 18:32:00,72.0,35.0,-100.00,NE,53,7.0,13.0,26,0.00,,,0.00,740.000000,,2013-03-29 18:32:00,
2013-03-29 18:42:00,72.0,35.0,-100.00,NE,53,7.0,13.0,26,0.00,,,0.00,740.000000,,2013-03-29 18:42:00,
2013-03-29 18:50:00,72.0,35.0,-100.00,NE,56,10.0,15.0,26,0.00,,,-99.99,787.000000,,2013-03-29 18:50:00,
2013-03-29 19:12:00,72.0,35.0,-100.00,NE,56,10.0,15.0,26,0.00,,,-99.99,787.000000,,2013-03-29 19:12:00,
2013-03-29 19:22:00,72.0,35.0,-100.00,NE,56,10.0,15.0,26,0.00,,,-99.99,787.000000,,2013-03-29 19:22:00,
2013-03-29 19:32:00,72.0,35.0,-100.00,NE,56,10.0,15.0,26,0.00,,,-99.99,787.000000,,2013-03-29 19:32:00,
2013-03-29 19:42:00,72.0,35.0,-100.00,NE,56,10.0,15.0,26,0.00,,,-99.99,787.000000,,2013-03-29 19:42:00,
2013-03-29 19:50:00,73.0,34.0,-100.00,East,84,10.0,15.0,24,0.00,,,0.00,798.000000,,2013-03-29 19:50:00,
2013-03-29 20:12:00,73.0,34.0,-100.00,East,84,10.0,15.0,24,0.00,,,0.00,798.000000,,2013-03-29 20:12:00,
2013-03-29 20:22:00,73.0,34.0,-100.00,East,84,10.0,15.0,24,0.00,,,0.00,798.000000,,2013-03-29 20:22:00,
2013-03-29 20:32:00,73.0,34.0,-100.00,East,84,10.0,15.0,24,0.00,,,0.00,798.000000,,2013-03-29 20:32:00,
2013-03-29 20:42:00,73.0,34.0,-100.00,East,84,10.0,15.0,24,0.00,,,0.00,798.000000,,2013-03-29 20:42:00,
2013-03-29 20:50:00,74.0,36.0,-100.00,East,87,8.0,14.0,25,0.00,,,0.00,753.000000,,2013-03-29 20:50:00,
2013-03-29 21:22:00,74.0,36.0,-100.00,East,87,8.0,14.0,25,0.00,,,0.00,753.000000,,2013-03-29 21:22:00,
2013-03-29 21:32:00,74.0,36.0,-100.00,East,87,8.0,14.0,25,0.00,,,0.00,753.000000,,2013-03-29 21:32:00,
2013-03-29 21:42:00,74.0,36.0,-100.00,East,87,8.0,14.0,25,0.00,,,0.00,753.000000,,2013-03-29 21:42:00,
2013-03-29 21:50:00,75.0,36.0,-100.00,ESE,106,5.0,13.0,24,0.00,,,0.00,714.000000,,2013-03-29 21:50:00,
2013-03-29 22:12:00,75.0,36.0,-100.00,ESE,106,5.0,13.0,24,0.00,,,0.00,714.000000,,2013-03-29 22:12:00,
2013-03-29 22:22:00,75.0,36.0,-100.00,ESE,106,5.0,13.0,24,0.00,,,0.00,714.000000,,2013-03-29 22:22:00,
2013-03-29 22:33:00,75.0,36.0,-100.00,ESE,106,5.0,13.0,24,0.00,,,0.00,714.000000,,2013-03-29 22:33:00,
2013-03-29 22:42:00,75.0,36.0,-100.00,ESE,106,5.0,13.0,24,0.00,,,0.00,714.000000,,2013-03-29 22:42:00,
2013-03-29 22:50:00,74.0,35.0,-100.00,NNE,12,4.0,12.0,24,0.00,,,-99.99,591.000000,,2013-03-29 22:50:00,
2013-03-29 23:22:00,74.0,35.0,-100.00,NNE,12,4.0,12.0,24,0.00,,,-99.99,591.000000,,2013-03-29 23:22:00,
2013-03-29 23:32:00,74.0,35.0,-100.00,NNE,12,4.0,12.0,24,0.00,,,-99.99,591.000000,,2013-03-29 23:32:00,
2013-03-29 23:42:00,74.0,35.0,-100.00,NNE,12,4.0,12.0,24,0.00,,,-99.99,591.000000,,2013-03-29 23:42:00,
2013-03-29 23:50:00,70.0,41.0,-100.00,WSW,257,10.0,18.0,35,0.00,,,0.00,387.000000,,2013-03-29 23:50:00,